Flag for France Weather past 2 weeks in Gustavia, Saint Barthélemy, France

Now
81 °F

Passing clouds.


Feels Like: 85 °F
Forecast: 80 / 85 °F
Wind: 13 mph from East

Location: Juliana Airport - Saint Maarten

Current Time: Jun 30, 2015 at 2:08:17 AM

Latest Report: Jun 30, 2015 at 1:00 AM


Visibility: N/A

Pressure: 30.07 "Hg

Humidity: 74%

Dew point: 72 °F

Location of GustaviaLocation

Historic Weather in Gustavia — Graph

°F

Gustavia temperature yesterday

Maximum temperature yesterday: 86 °F (at 10:00 AM)
Minimum temperature yesterday: 81 °F (at 2:00 AM)
Average temperature yesterday: 83 °F

Past Weeks' High & Low Weather Summary

 TemperatureHumidityPressure
High88 °F (Jun 17, 4:00 PM)89% (Jun 27, 6:00 AM)30.18 "Hg (Jun 27, 6:00 AM)
Low77 °F (Jun 27, 6:00 AM)52% (Jun 25, 1:00 PM)29.83 "Hg (Jun 20, 9:00 AM)
Average83 °F71%30.09 "Hg
* Reported Midnight between Jun 14 and Jun 15 — Midnight between Jun 29 and Jun 30, Gustavia, Weather by CustomWeather, © 2015

Note: Actual official high and low records may vary slightly from our data, if they occured in-between our weather recording intervals... More about our weather records

Advertising

Gustavia weather history for previous 24 hours

 ConditionsComfort  
Time TempWeatherWind HumidityBarometerVisibility
12:00 AM
Tue, Jun 30
81 °FPassing clouds.14 mph70%30.09 "HgN/A
11:00 PM
Mon, Jun 29
82 °FPassing clouds.16 mph66%30.12 "HgN/A
10:00 PM82 °FPassing clouds.15 mph62%30.12 "HgN/A
9:00 PM82 °FPassing clouds.14 mph66%30.09 "HgN/A
8:00 PM82 °FPassing clouds.14 mph66%30.09 "HgN/A
7:00 PM82 °FPassing clouds.20 mph70%30.07 "HgN/A
6:00 PM82 °FPassing clouds.16 mph70%30.07 "HgN/A
5:00 PM84 °FScattered clouds.13 mph66%30.07 "HgN/A
4:00 PM84 °FPassing clouds.20 mph62%30.07 "HgN/A
3:00 PM86 °FScattered clouds.17 mph62%30.07 "HgN/A
2:00 PM86 °FScattered clouds.17 mph62%30.09 "HgN/A
1:00 PM86 °FPassing clouds.21 mph62%30.09 "HgN/A
12:00 PM84 °FSprinkles. Partly sunny.20 mph74%30.12 "HgN/A
11:00 AM86 °FScattered clouds.23 mph62%30.12 "HgN/A
10:00 AM86 °FPassing clouds.18 mph62%30.12 "HgN/A
9:00 AM84 °FPassing clouds.18 mph66%30.12 "HgN/A
8:00 AM82 °FPartly sunny.16 mph70%30.12 "HgN/A
7:00 AM82 °FPassing clouds.18 mph70%30.12 "HgN/A
6:00 AM81 °FScattered clouds.18 mph79%30.12 "HgN/A
5:00 AM81 °FScattered showers. Passing clouds.14 mph74%30.09 "HgN/A
4:00 AM81 °FPassing clouds.15 mph74%30.09 "HgN/A
3:00 AM81 °FPassing clouds.15 mph74%30.09 "HgN/A
2:00 AM81 °FPassing clouds.17 mph79%30.09 "HgN/A
Weather by CustomWeather, © 2015

See weather overviewHow to use our weather pages